Precipitable_Water
0.26 0.22 0.26 0.25 0.18 0.19 0.21 0.21 0.25 0.24 0.27 0.46 0.60 0.57 0.55 0.64 0.56 0.56 1.12 1.16 1.23 1.30 1.34 1.28 1.15 1.08 1.07 1.15 1.24 1.34 1.39 1.43 1.49 1.66 1.69 1.63 1.66 1.76 1.87 1.69 1.70 1.68 1.67 1.67 1.52 1.50 1.52 1.48 1.33
0.24 0.18 0.17 0.20 0.18 0.17 0.21 0.24 0.24 0.26 0.27 0.36 0.51 0.65 0.59 0.57 0.84 0.88 1.00 1.16 1.24 1.31 1.32 1.28 1.16 1.09 1.03 0.95 0.98 1.12 1.24 1.30 1.14 1.46 1.68 1.71 1.72 1.53 1.42 1.85 1.68 1.74 1.70 1.68 1.53 1.46 1.53 1.53 1.38
0.21 0.13 0.14 0.17 0.19 0.19 0.25 0.25 0.24 0.25 0.29 0.34 0.51 0.70 0.70 0.68 0.92 0.98 1.15 1.22 1.33 1.32 1.33 1.26 1.24 1.16 1.09 1.01 0.97 0.98 1.01 1.06 1.13 1.28 1.48 1.62 1.64 1.72 1.59 1.69 1.68 1.76 1.68 1.67 1.64 1.66 1.61 1.44 1.36
0.17 0.13 0.13 0.15 0.14 0.16 0.20 0.25 0.28 0.25 0.36 0.47 0.60 0.58 0.80 1.00 1.03 1.17 1.25 1.28 1.29 1.35 1.37 1.32 1.26 1.21 1.15 1.06 1.00 1.02 1.05 1.02 1.05 1.06 1.17 1.39 1.54 1.62 1.70 1.77 1.70 1.72 1.67 1.61 1.66 1.60 1.51 1.44 1.30
0.16 0.13 0.11 0.13 0.13 0.15 0.18 0.22 0.27 0.31 0.46 0.52 0.59 0.60 0.73 1.01 1.27 1.27 1.25 1.26 1.25 1.29 1.34 1.33 1.27 1.24 1.18 1.09 1.01 1.04 1.05 1.04 1.05 1.10 1.06 1.01 1.13 1.19 1.35 1.68 1.71 1.67 1.64 1.59 1.58 1.41 1.42 1.32 1.34
0.14 0.15 0.13 0.12 0.13 0.16 0.19 0.24 0.30 0.39 0.45 0.51 0.64 0.66 0.72 1.06 1.10 1.24 1.22 1.18 1.19 1.16 1.22 1.26 1.24 1.18 1.10 1.07 1.07 1.04 1.03 1.09 1.11 1.14 1.10 1.08 1.10 1.14 1.19 1.15 1.22 1.28 1.27 1.27 1.23 1.26 1.35 1.11 1.20
0.14 0.14 0.12 0.13 0.13 0.14 0.16 0.20 0.24 0.29 0.37 0.44 0.58 0.58 0.77 0.85 1.03 1.09 1.13 1.12 1.06 1.03 1.06 1.08 1.10 1.07 1.05 1.04 1.06 1.05 1.03 1.03 1.04 1.14 1.20 1.19 1.14 1.15 1.08 0.97 0.97 1.03 1.12 1.25 1.28 1.21 1.25 1.19 1.17
0.16 0.14 0.12 0.12 0.12 0.13 0.17 0.21 0.26 0.25 0.26 0.42 0.47 0.49 0.55 0.74 0.98 1.01 0.99 1.00 1.01 1.00 0.98 0.96 1.01 1.03 1.05 1.06 1.01 1.00 1.02 1.04 1.03 1.07 1.11 1.17 1.28 1.33 1.30 1.33 1.27 1.21 1.22 1.27 1.31 1.28 1.25 1.27 1.23
0.18 0.14 0.13 0.13 0.14 0.14 0.18 0.18 0.26 0.32 0.30 0.33 0.38 0.46 0.59 0.80 0.84 0.84 0.85 0.81 0.80 0.78 0.81 0.92 0.97 0.99 1.00 1.00 0.96 1.01 1.00 1.00 1.02 1.07 1.09 1.12 1.19 1.33 1.47 1.43 1.46 1.46 1.40 1.35 1.32 1.32 1.30 1.27 1.22
0.18 0.15 0.16 0.20 0.19 0.18 0.18 0.20 0.22 0.25 0.26 0.29 0.35 0.49 0.61 0.70 0.71 0.67 0.63 0.60 0.53 0.56 0.62 0.75 0.90 0.96 1.00 0.95 0.91 1.07 1.12 1.12 1.11 1.12 1.13 1.10 1.13 1.17 1.30 1.42 1.48 1.47 1.43 1.45 1.54 1.46 1.39 1.30 1.26
0.23 0.19 0.20 0.24 0.25 0.24 0.21 0.23 0.28 0.27 0.26 0.31 0.31 0.38 0.47 0.52 0.53 0.53 0.53 0.48 0.51 0.56 0.59 0.65 0.78 0.93 1.03 0.99 1.05 1.08 1.10 1.11 1.10 1.10 1.07 1.08 1.06 1.11 1.21 1.23 1.24 1.34 1.35 1.38 1.35 1.58 1.52 1.45 1.39
0.24 0.27 0.29 0.30 0.29 0.28 0.27 0.31 0.30 0.32 0.36 0.43 0.46 0.50 0.52 0.52 0.51 0.50 0.49 0.50 0.54 0.60 0.64 0.68 0.77 0.84 0.89 0.91 0.92 0.94 0.92 0.90 0.90 0.99 1.06 1.06 1.07 1.07 1.05 1.05 1.16 1.27 1.32 1.27 1.25 1.29 1.29 1.39 1.42
0.27 0.29 0.33 0.33 0.33 0.33 0.34 0.29 0.29 0.30 0.36 0.42 0.45 0.46 0.43 0.43 0.42 0.44 0.47 0.50 0.52 0.54 0.56 0.56 0.62 0.65 0.72 0.74 0.72 0.71 0.70 0.68 0.66 0.65 0.68 0.72 0.71 0.68 0.73 0.70 0.70 0.84 1.04 1.15 1.14 1.14 1.25 1.31 1.27
0.31 0.33 0.35 0.36 0.33 0.32 0.28 0.26 0.27 0.28 0.34 0.33 0.35 0.35 0.36 0.36 0.37 0.40 0.41 0.43 0.43 0.42 0.42 0.47 0.50 0.56 0.57 0.59 0.55 0.50 0.47 0.46 0.46 0.47 0.48 0.54 0.59 0.60 0.67 0.66 0.72 0.85 0.91 0.95 1.00 1.07 1.09 1.14 1.26
0.32 0.26 0.29 0.29 0.29 0.27 0.26 0.23 0.20 0.23 0.27 0.28 0.31 0.33 0.35 0.36 0.38 0.38 0.40 0.38 0.38 0.35 0.38 0.39 0.39 0.41 0.40 0.41 0.40 0.38 0.37 0.39 0.41 0.45 0.51 0.52 0.56 0.57 0.55 0.54 0.55 0.60 0.74 0.83 0.92 0.95 1.07 1.04 1.13
0.24 0.24 0.16 0.22 0.22 0.25 0.21 0.13 0.21 0.26 0.25 0.24 0.28 0.29 0.30 0.33 0.35 0.37 0.38 0.38 0.37 0.36 0.37 0.36 0.34 0.38 0.38 0.38 0.37 0.36 0.38 0.38 0.43 0.49 0.51 0.50 0.49 0.50 0.53 0.52 0.51 0.53 0.57 0.61 0.69 0.74 0.80 0.91 1.10
0.19 0.14 0.14 0.16 0.22 0.20 0.20 0.13 0.19 0.25 0.22 0.19 0.22 0.27 0.28 0.29 0.32 0.35 0.37 0.38 0.39 0.38 0.37 0.37 0.37 0.37 0.37 0.38 0.40 0.41 0.42 0.41 0.43 0.46 0.47 0.47 0.45 0.44 0.44 0.47 0.48 0.44 0.42 0.43 0.46 0.55 0.65 0.65 0.70
0.17 0.17 0.19 0.18 0.20 0.22 0.20 0.18 0.21 0.23 0.23 0.20 0.22 0.24 0.28 0.29 0.32 0.37 0.39 0.40 0.41 0.42 0.41 0.42 0.41 0.42 0.42 0.42 0.43 0.45 0.46 0.47 0.47 0.46 0.46 0.46 0.46 0.45 0.43 0.44 0.46 0.43 0.39 0.36 0.34 0.33 0.40 0.48 0.59
0.25 0.24 0.22 0.22 0.25 0.24 0.22 0.22 0.23 0.25 0.24 0.23 0.25 0.25 0.27 0.30 0.36 0.39 0.42 0.42 0.44 0.46 0.44 0.44 0.44 0.45 0.45 0.45 0.45 0.45 0.44 0.46 0.49 0.49 0.48 0.50 0.47 0.47 0.46 0.44 0.44 0.43 0.41 0.41 0.39 0.35 0.33 0.31 0.39
0.27 0.26 0.24 0.26 0.29 0.28 0.25 0.22 0.25 0.25 0.26 0.27 0.27 0.28 0.30 0.33 0.36 0.38 0.42 0.45 0.45 0.45 0.45 0.44 0.45 0.46 0.46 0.46 0.47 0.46 0.45 0.46 0.47 0.49 0.53 0.54 0.53 0.51 0.49 0.47 0.45 0.45 0.40 0.39 0.40 0.39 0.35 0.33 0.36
0.28 0.26 0.25 0.25 0.27 0.28 0.25 0.22 0.25 0.26 0.31 0.30 0.32 0.36 0.36 0.36 0.36 0.38 0.40 0.42 0.45 0.45 0.46 0.46 0.46 0.46 0.47 0.47 0.47 0.47 0.47 0.46 0.46 0.48 0.50 0.55 0.57 0.57 0.55 0.52 0.49 0.46 0.47 0.43 0.40 0.39 0.37 0.33 0.33
0.25 0.31 0.30 0.28 0.25 0.19 0.27 0.17 0.23 0.25 0.27 0.28 0.32 0.35 0.37 0.38 0.40 0.40 0.42 0.44 0.48 0.50 0.52 0.51 0.49 0.49 0.50 0.52 0.48 0.45 0.42 0.41 0.44 0.46 0.50 0.55 0.58 0.55 0.53 0.52 0.52 0.52 0.49 0.46 0.44 0.41 0.39 0.38 0.34
0.29 0.34 0.31 0.28 0.25 0.23 0.23 0.21 0.23 0.26 0.25 0.27 0.31 0.34 0.36 0.39 0.40 0.41 0.44 0.46 0.50 0.52 0.53 0.53 0.51 0.51 0.51 0.50 0.49 0.48 0.47 0.50 0.52 0.52 0.52 0.53 0.54 0.52 0.50 0.50 0.53 0.53 0.53 0.50 0.49 0.47 0.42 0.41 0.38
0.37 0.33 0.31 0.29 0.25 0.19 0.22 0.22 0.21 0.22 0.25 0.28 0.32 0.35 0.37 0.38 0.40 0.43 0.45 0.47 0.48 0.52 0.54 0.55 0.53 0.51 0.52 0.51 0.51 0.50 0.50 0.53 0.52 0.51 0.49 0.48 0.49 0.48 0.49 0.49 0.49 0.48 0.48 0.48 0.48 0.48 0.48 0.46 0.43
0.37 0.31 0.23 0.20 0.20 0.19 0.25 0.22 0.22 0.27 0.30 0.32 0.33 0.37 0.40 0.42 0.43 0.44 0.45 0.45 0.48 0.50 0.53 0.54 0.53 0.52 0.53 0.53 0.53 0.53 0.55 0.54 0.51 0.49 0.46 0.45 0.45 0.43 0.43 0.44 0.42 0.40 0.39 0.39 0.39 0.39 0.39 0.38 0.35
0.33 0.31 0.25 0.18 0.18 0.19 0.26 0.18 0.23 0.29 0.33 0.36 0.38 0.40 0.43 0.46 0.48 0.48 0.48 0.49 0.50 0.52 0.54 0.54 0.52 0.53 0.53 0.55 0.54 0.57 0.54 0.50 0.47 0.47 0.44 0.43 0.40 0.40 0.40 0.38 0.36 0.33 0.31 0.29 0.28 0.26 0.26 0.27 0.29
0.34 0.31 0.36 0.27 0.27 0.21 0.22 0.25 0.31 0.33 0.33 0.37 0.39 0.43 0.46 0.49 0.51 0.51 0.52 0.52 0.54 0.57 0.58 0.57 0.55 0.54 0.55 0.56 0.56 0.54 0.52 0.48 0.46 0.45 0.43 0.40 0.39 0.38 0.35 0.34 0.31 0.28 0.28 0.27 0.27 0.26 0.27 0.29 0.30
0.40 0.41 0.31 0.32 0.21 0.18 0.20 0.22 0.24 0.31 0.34 0.38 0.41 0.44 0.48 0.53 0.54 0.55 0.57 0.57 0.58 0.60 0.60 0.61 0.60 0.56 0.56 0.55 0.55 0.52 0.50 0.47 0.45 0.42 0.40 0.39 0.38 0.36 0.33 0.29 0.28 0.27 0.27 0.27 0.27 0.27 0.27 0.28 0.29
0.38 0.36 0.35 0.34 0.32 0.24 0.21 0.22 0.36 0.34 0.38 0.39 0.43 0.46 0.51 0.55 0.57 0.58 0.58 0.61 0.62 0.62 0.61 0.60 0.58 0.55 0.54 0.52 0.51 0.49 0.46 0.44 0.43 0.42 0.40 0.38 0.36 0.32 0.28 0.27 0.26 0.26 0.26 0.27 0.27 0.27 0.26 0.26 0.26
0.43 0.40 0.38 0.31 0.30 0.34 0.32 0.22 0.41 0.41 0.43 0.44 0.46 0.50 0.55 0.58 0.58 0.59 0.63 0.63 0.61 0.58 0.58 0.58 0.57 0.53 0.51 0.49 0.46 0.46 0.44 0.44 0.42 0.39 0.38 0.36 0.32 0.29 0.28 0.27 0.26 0.25 0.24 0.23 0.23 0.22 0.23 0.23 0.23
Wind_Speed
14 13 12 12 12 12 11 8 8 8 8 6 5 5 3 3 6 5 5 5 6 7 8 8 8 8 10 12 12 11 11 11 13 16 18 20 22 21 18 20 19 17 15 14 13 13 14 14 13
12 11 11 11 13 12 9 9 8 7 7 8 6 6 4 2 3 5 6 4 4 7 8 9 9 10 10 11 11 12 14 15 16 15 18 21 20 27 28 20 18 17 16 15 15 15 16 15 14
9 8 10 10 11 11 7 7 9 9 7 8 7 5 5 4 3 5 5 5 6 7 7 8 11 12 11 12 13 15 16 18 18 19 20 21 22 23 22 19 16 17 17 16 16 17 17 17 17
7 6 6 8 4 5 7 8 8 8 7 7 7 5 5 5 5 5 5 6 6 8 9 10 10 11 11 13 14 15 16 17 19 20 20 22 22 21 23 22 22 20 20 19 18 18 17 18 19
4 5 4 3 1 1 2 4 6 6 6 6 7 6 5 5 6 5 5 5 7 8 9 10 11 12 12 13 15 16 17 18 19 20 21 22 23 23 24 24 23 22 22 21 21 20 20 20 20
3 3 5 4 4 2 2 2 1 2 3 5 5 6 6 6 6 6 6 7 7 9 10 11 11 12 13 14 16 17 18 20 21 21 23 24 24 24 24 24 24 24 24 23 23 23 22 21 21
2 4 5 5 5 4 2 1 2 1 3 3 7 8 8 7 7 8 8 9 9 10 11 11 12 14 15 16 16 18 19 19 21 23 24 25 26 27 27 26 26 26 25 25 26 26 25 25 23
3 5 6 3 3 3 2 0 2 2 2 5 6 8 9 9 10 10 10 11 11 11 11 13 14 15 16 17 18 18 19 20 21 22 23 25 26 28 29 28 29 29 29 29 29 29 29 29 28
3 4 4 3 1 1 2 3 3 5 5 6 7 8 9 9 10 10 11 11 12 12 14 15 16 17 18 18 18 19 19 19 20 20 21 23 24 26 27 29 30 30 31 31 33 32 32 32 32
4 4 3 1 2 3 3 4 5 7 7 7 7 8 9 10 11 11 11 11 12 13 14 16 18 19 19 19 18 18 17 17 18 19 20 22 23 25 29 32 33 31 33 33 33 34 33 33 32
5 6 2 2 3 5 6 6 6 8 8 8 10 10 10 11 11 11 11 12 13 14 16 17 17 17 17 16 17 17 17 18 18 19 21 21 22 24 27 30 36 45 37 23 28 31 34 35 35
8 6 4 4 5 4 5 6 7 9 8 8 7 8 9 10 11 12 12 13 14 15 15 15 15 13 12 12 12 12 13 13 14 14 15 17 18 20 20 22 22 25 34 33 29 21 20 35 33
10 8 8 7 6 7 6 5 5 4 2 2 3 5 7 7 8 9 10 10 11 11 10 9 7 7 7 8 9 10 10 11 12 13 15 16 16 17 18 19 19 20 23 33 35 32 34 31 26
8 8 7 7 7 6 8 7 4 3 2 1 2 3 4 5 5 6 7 7 8 7 7 7 7 7 8 9 9 11 12 13 14 15 16 17 18 18 18 19 20 20 19 21 25 27 26 31 36
8 6 4 7 7 6 10 3 4 5 3 4 6 7 8 8 8 9 9 9 8 8 9 10 10 10 11 12 13 14 15 16 16 17 17 18 19 20 20 21 21 22 21 22 23 26 26 25 26
6 5 6 7 9 6 9 9 5 5 6 8 9 10 11 12 12 11 11 10 11 11 12 13 13 13 14 15 16 17 17 18 18 19 20 20 21 21 22 23 24 24 24 23 23 23 24 25 26
8 7 8 9 8 10 8 13 9 9 11 13 13 12 13 13 13 13 13 13 14 16 16 17 17 17 18 18 19 20 20 21 21 22 22 23 23 24 25 25 25 26 26 26 26 26 26 27 28
10 10 9 11 10 11 15 17 16 14 15 16 16 16 15 15 15 15 16 17 18 18 19 20 20 21 21 22 23 23 24 24 25 25 25 26 26 27 27 28 27 27 27 27 27 28 29 30 30
10 10 14 12 10 15 15 19 19 17 14 14 15 15 15 17 17 17 19 20 21 21 21 22 22 23 24 25 25 26 26 27 27 28 28 29 29 30 31 31 31 30 30 29 29 29 30 31 32
12 14 13 10 12 16 16 18 15 11 12 11 11 11 13 15 16 18 20 21 23 24 24 24 25 25 26 27 28 28 29 29 30 31 32 33 33 34 35 35 35 34 34 33 33 32 32 32 32
14 13 14 16 19 12 14 9 11 8 12 9 9 11 12 13 15 17 19 21 22 24 24 25 26 27 28 29 29 30 31 32 33 34 35 36 38 39 39 39 38 37 37 36 36 36 36 36 35
13 12 15 17 16 10 11 10 9 11 12 7 10 12 13 14 16 17 19 22 24 25 26 27 28 29 30 31 31 32 33 34 35 37 38 39 41 41 41 41 40 39 39 39 39 38 39 39 39
11 15 17 16 11 12 4 9 8 11 10 11 13 15 15 17 18 20 22 23 24 24 26 27 29 31 32 33 34 34 36 37 38 40 41 41 41 42 42 42 42 41 41 41 41 42 41 41 42
15 16 15 10 8 7 5 11 8 10 13 14 15 18 19 20 21 23 24 24 24 25 27 29 32 33 34 34 35 37 39 40 40 40 40 40 41 41 42 42 43 43 43 43 44 44 44 44 45
17 15 12 9 8 11 6 12 12 13 14 16 19 20 22 24 25 28 28 27 28 29 31 32 33 35 35 36 37 38 39 40 40 39 40 40 41 42 42 43 44 44 46 46 47 47 48 48 49
12 13 11 12 12 16 17 9 12 14 15 18 19 22 25 27 29 31 30 30 31 33 34 35 36 37 37 38 39 38 39 38 39 40 40 41 41 43 44 44 45 46 47 47 48 50 51 52 53
11 12 14 15 14 15 11 15 19 17 16 19 23 27 28 32 33 34 33 33 34 36 38 38 39 39 39 38 38 38 38 38 39 40 41 42 43 44 45 46 46 46 47 48 50 51 52 53 54
13 13 13 13 15 18 18 23 17 19 23 26 30 31 33 36 36 37 37 37 38 40 40 40 40 40 39 38 37 37 38 38 39 40 42 43 44 45 46 47 47 47 48 49 50 52 53 55 56
16 12 14 17 16 17 22 21 20 25 29 31 32 34 38 40 38 39 39 39 41 42 41 40 40 39 37 36 36 36 37 38 39 41 42 43 44 45 46 46 47 48 50 51 52 54 55 56 56
13 16 16 17 19 22 25 32 29 28 29 32 36 40 41 41 41 42 42 44 43 42 41 41 39 37 35 35 34 35 37 38 39 41 42 43 45 45 46 47 49 50 52 53 53 55 55 55 55
Wind_Direction
277 270 259 253 255 253 241 238 254 238 247 248 246 237 190 255 258 242 235 257 260 246 252 256 262 261 259 258 263 261 252 251 250 248 243 243 243 238 240 227 225 223 223 222 223 226 227 227 228
276 263 252 252 255 244 229 234 237 258 266 242 229 216 217 199 240 219 234 261 251 254 257 258 260 267 265 262 260 262 255 259 257 259 258 254 255 256 272 233 227 230 228 232 233 233 234 233 235
272 257 252 251 251 249 240 243 258 261 257 228 222 228 241 230 247 234 240 255 259 263 262 266 267 273 267 264 270 268 263 265 266 265 266 264 263 262 256 254 247 241 239 242 243 239 240 244 245
260 244 249 255 231 257 263 268 258 249 228 232 210 209 209 237 238 241 246 259 267 266 269 275 269 274 271 270 272 271 270 270 268 269 263 265 264 262 257 257 250 250 254 255 252 250 248 248 248
262 244 234 200 153 221 277 278 252 232 229 226 233 208 211 229 239 249 260 269 268 273 274 276 277 275 274 276 278 276 274 273 272 270 267 267 266 263 258 257 261 257 257 256 252 248 249 253 246
248 240 170 129 113 99 76 24 203 174 221 232 207 212 235 237 242 262 266 274 277 282 281 278 276 277 280 284 284 280 277 275 275 274 271 270 266 266 262 258 258 258 257 255 252 247 251 250 244
184 145 115 114 123 81 26 6 36 275 255 249 245 237 232 238 252 261 270 273 281 285 281 278 279 281 283 286 286 285 281 278 277 276 273 271 268 265 264 262 261 259 255 253 251 249 250 248 245
131 123 135 112 115 74 16 320 264 308 261 253 256 243 234 250 255 263 272 278 279 280 280 282 283 284 286 287 288 288 285 281 279 277 276 273 271 268 263 262 260 258 256 254 253 251 250 248 244
121 130 113 96 99 52 332 287 291 270 268 267 263 255 253 249 257 269 276 278 277 279 283 285 285 287 287 288 288 288 286 284 281 280 280 278 274 270 265 262 261 260 257 255 252 251 249 248 248
89 104 75 33 329 319 309 304 288 269 268 269 260 258 256 256 266 272 275 277 281 285 288 289 289 288 286 286 286 287 286 285 286 284 283 284 280 276 266 265 261 259 258 260 254 251 248 248 247
57 73 70 18 321 302 301 292 290 283 276 272 258 252 255 259 265 269 274 278 283 287 290 292 291 290 288 288 287 286 286 288 290 289 287 286 285 283 280 281 270 255 251 259 258 252 248 248 249
79 60 37 15 352 325 307 302 293 291 294 282 263 257 258 261 268 274 278 282 286 290 294 293 293 291 289 291 295 295 294 296 298 302 302 298 291 291 289 292 285 270 252 254 255 252 256 249 247
74 74 60 52 46 43 36 24 3 337 340 309 272 267 264 267 272 279 286 288 292 295 297 301 305 306 303 302 303 305 304 305 305 307 308 306 305 302 298 297 296 294 271 254 260 271 256 258 251
71 65 58 45 39 39 5 351 357 12 350 304 287 272 277 276 283 292 298 304 308 309 313 313 311 305 304 304 303 304 305 305 305 307 308 308 305 303 303 303 302 300 286 277 264 270 268 263 256
59 42 50 37 22 7 353 332 342 350 320 291 280 279 281 279 282 286 296 296 297 298 299 301 299 294 294 294 296 298 300 302 303 304 305 307 306 305 304 303 302 301 297 288 281 275 269 265 263
29 28 10 18 358 0 344 329 322 313 301 294 285 281 278 275 275 279 284 285 285 289 289 290 290 290 289 290 292 293 294 296 297 299 301 301 302 303 304 303 300 298 296 294 288 285 276 274 268
22 3 357 348 349 336 334 316 325 308 296 293 291 284 282 280 274 274 276 280 283 284 285 285 286 286 287 288 289 290 291 292 293 295 296 298 299 300 301 301 299 297 294 292 290 287 283 278 274
356 350 340 328 335 325 316 305 312 309 298 291 289 287 282 279 277 276 277 281 282 284 283 282 282 283 283 285 286 286 287 289 290 291 292 294 295 297 299 298 298 297 294 291 289 287 284 281 279
352 340 333 337 334 328 323 313 314 313 306 298 295 292 288 284 283 281 280 281 281 283 283 283 282 282 282 282 283 283 284 284 286 287 290 291 293 294 296 296 295 294 292 291 289 288 285 282 281
348 340 345 343 342 328 325 318 327 338 331 323 319 310 306 298 290 285 283 282 282 283 283 283 283 283 284 284 284 284 284 285 286 287 288 289 291 292 293 293 293 290 289 287 287 286 285 284 283
349 344 342 333 332 328 335 331 347 350 343 331 329 324 319 312 304 297 291 288 286 284 283 282 282 283 283 283 283 283 283 285 286 287 288 289 290 290 290 290 289 288 286 286 285 284 283 283 283
338 345 332 329 333 338 349 333 351 349 351 356 343 338 330 323 315 308 302 295 289 286 284 283 283 283 283 282 281 280 282 284 286 287 288 290 290 289 289 288 287 286 285 284 284 283 282 282 281
331 330 326 329 322 324 341 326 333 351 355 346 343 337 329 324 317 312 308 302 295 290 287 285 285 285 283 282 281 281 281 283 285 287 288 289 290 289 288 288 287 285 284 282 282 281 280 279 279
326 324 324 330 333 324 343 339 325 347 342 336 332 333 329 324 319 313 309 306 300 294 291 289 288 287 285 285 283 282 283 284 285 286 287 288 291 291 290 288 286 285 284 283 282 280 279 278 277
333 333 334 329 329 321 329 318 312 323 328 329 329 328 326 322 319 315 309 304 301 298 295 292 291 289 287 286 285 285 285 286 286 287 288 290 290 291 291 290 288 286 285 284 282 281 280 278 277
330 331 331 317 318 312 301 299 328 320 317 322 325 325 325 324 321 316 311 305 303 301 298 294 293 291 289 288 287 286 286 287 287 288 290 291 291 291 292 291 289 288 286 284 283 282 281 279 277
323 318 323 311 311 306 300 298 307 313 315 318 320 323 324 325 321 317 313 307 305 304 300 296 294 292 291 289 288 287 287 287 289 290 292 292 293 293 293 292 291 289 288 286 285 283 282 280 279
313 314 312 311 311 307 302 305 296 308 313 315 316 318 319 322 320 318 313 309 306 305 302 298 295 293 291 289 288 287 288 289 289 291 293 294 294 294 294 293 292 291 289 288 286 285 283 281 279
301 300 306 308 302 303 307 302 312 304 308 312 316 318 318 319 318 318 315 313 309 307 304 301 297 294 291 288 288 288 289 290 292 294 294 295 296 296 295 294 293 292 292 290 288 286 284 282 279
282 294 298 303 302 297 298 298 300 300 308 313 314 315 317 317 317 318 316 313 311 308 305 302 300 295 291 289 289 290 291 293 293 295 297 297 297 297 296 296 295 294 292 291 288 286 284 281 278